RH
25 27 29 33 41 47 41 31 27 26 25 24 23 22 23 23 22 23 23 21 19 19 20 20 20 20 20 19 20 20 19 18 17 17 16 16 17 20 24 27 30 36
25 27 29 34 43 46 37 29 27 26 25 24 22 22 23 23 23 24 23 21 20 21 21 21 21 21 21 21 21 21 20 19 18 17 17 17 17 17 20 23 27 32
24 26 29 36 45 44 35 29 27 26 25 23 22 22 23 23 24 23 22 21 20 21 22 22 22 22 21 21 21 21 21 20 19 18 18 17 16 17 18 19 21 27
25 27 30 38 45 40 33 29 27 26 25 22 21 22 22 23 24 23 22 22 21 22 22 22 23 23 22 22 21 22 21 20 20 19 19 18 17 17 18 18 21 25
26 28 33 40 43 38 32 29 27 26 24 21 20 21 22 23 24 23 22 21 22 23 23 23 24 23 23 23 22 21 21 21 21 20 19 18 18 18 18 20 24 27
27 31 36 41 41 37 32 28 26 25 22 21 21 22 23 24 23 23 22 22 24 24 24 24 24 24 23 23 21 21 21 21 21 20 19 19 19 19 20 23 28 31
31 35 39 41 40 35 30 28 26 24 22 21 22 22 23 23 23 23 23 25 26 25 26 25 24 24 23 22 21 20 20 21 21 21 20 20 21 22 23 26 30 33
37 40 41 41 38 33 29 27 25 24 23 22 22 22 23 23 24 25 26 27 27 26 26 26 25 24 22 21 21 20 20 20 20 21 21 22 23 24 25 26 29 32
42 44 44 41 36 32 29 27 25 24 23 23 22 22 23 25 26 27 28 28 27 27 26 26 25 23 21 20 20 20 19 19 19 21 21 22 23 25 26 27 30 33
45 46 45 40 35 32 29 26 25 25 23 23 23 23 24 26 28 29 29 28 27 27 27 26 24 22 20 20 19 18 18 18 19 19 20 21 21 23 26 28 31 35
48 50 46 40 34 31 28 26 25 25 24 23 23 24 26 28 29 28 28 28 28 28 27 25 23 21 20 19 17 17 16 16 16 16 17 18 18 19 22 25 28 31
55 53 47 39 34 31 28 26 26 25 24 24 24 26 27 28 28 28 28 29 28 28 26 24 22 21 19 17 15 14 14 14 14 13 15 16 16 16 16 17 18 19
58 53 46 38 33 31 28 26 26 25 24 24 25 28 28 27 28 28 29 29 28 27 25 23 21 19 16 13 11 11 11 11 11 11 11 12 11 9 8 8 7 6
57 52 46 39 34 31 28 27 27 25 25 25 27 28 27 27 28 29 29 29 28 26 24 22 18 14 10 8 7 7 7 6 6 6 5 4 4 2 2 2 2 1
57 52 45 39 35 32 29 28 27 26 25 26 28 29 28 28 29 29 30 29 27 25 21 17 11 7 5 4 3 3 2 2 2 2 1 1 1 1 1 1 1 1
59 53 45 39 36 33 31 29 28 26 26 28 29 29 28 29 30 30 30 28 26 21 15 8 4 2 1 1 1 1 1 1 1 1 1 1 1 1 1 1 1 1
63 53 45 41 38 35 33 30 28 26 27 29 29 29 30 30 31 30 29 26 21 13 6 2 1 1 1 1 1 1 1 1 1 1 1 1 1 1 1 1 1 1
66 54 46 44 40 37 34 31 28 27 29 30 30 30 31 31 31 30 27 22 13 5 1 1 1 1 1 1 1 1 1 1 1 1 1 1 1 1 1 1 1 1
66 54 48 46 42 39 35 31 29 29 30 31 31 31 32 31 31 28 22 13 5 1 1 1 1 1 1 1 1 1 1 1 1 1 1 2 2 1 2 1 1 1
64 54 50 48 44 40 35 31 30 31 32 32 31 32 32 31 29 22 13 5 1 1 1 1 1 1 1 1 2 1 2 2 2 2 2 2 2 2 2 2 2 2
60 54 52 49 44 40 36 33 32 32 32 33 32 32 32 29 22 12 5 2 1 1 1 1 2 2 1 2 2 2 2 2 2 2 2 2 2 2 2 2 2 2
58 55 53 49 45 40 36 34 33 33 33 33 32 33 31 23 12 4 1 1 1 1 1 2 2 2 2 2 2 2 2 2 2 2 2 2 3 2 2 2 2 2
59 56 53 49 44 40 37 35 34 34 34 34 33 32 26 14 4 1 1 1 1 1 2 2 2 2 2 2 2 2 2 2 3 3 2 3 3 3 3 3 2 2
59 56 53 48 43 39 38 36 36 36 35 36 34 27 16 6 1 1 1 1 2 2 2 2 2 2 2 2 2 2 3 3 3 3 3 3 3 3 3 3 3 3
59 56 52 46 42 40 38 38 38 38 38 37 31 19 7 2 1 1 1 2 2 2 2 2 2 2 2 3 3 3 3 3 3 3 3 3 3 4 3 3 3 3
59 56 50 45 42 40 40 40 40 40 40 34 22 9 2 1 1 1 2 2 2 2 2 2 2 3 3 3 3 3 3 3 3 4 3 4 4 4 4 4 4 4
Wind_Speed
12 11 10 10 12 13 13 12 11 11 12 12 12 12 12 13 13 14 14 13 12 12 13 14 15 15 15 15 15 15 15 15 16 16 16 16 17 18 19 20 21 22
12 11 11 11 13 13 13 12 11 11 12 12 12 12 12 13 14 14 14 13 12 13 14 14 15 16 16 16 16 15 15 15 16 16 17 17 17 18 19 20 21 22
12 12 12 12 13 13 12 12 11 12 12 12 12 12 13 14 14 14 13 13 13 13 14 15 16 17 17 17 16 16 15 15 15 16 17 17 18 18 19 20 21 22
13 13 13 14 14 13 12 11 11 12 12 12 12 13 14 14 14 14 13 13 13 14 15 16 17 17 17 17 16 16 15 15 15 15 16 17 18 18 19 20 21 22
14 14 14 15 14 13 12 11 11 12 12 12 12 13 13 13 14 13 13 14 15 15 16 17 17 18 18 18 17 16 16 15 15 15 16 17 17 18 19 20 20 21
15 15 15 15 14 13 12 11 12 12 12 12 12 13 13 13 14 14 14 15 15 16 17 17 18 18 18 18 17 17 16 16 16 15 16 17 17 18 19 20 20 20
16 16 16 14 14 13 12 12 13 13 12 12 12 12 13 14 14 15 15 15 16 16 17 17 18 18 18 18 17 17 16 16 16 16 16 16 17 18 18 19 19 19
16 16 15 14 14 13 12 13 13 12 12 12 12 13 14 14 15 15 16 16 16 16 16 17 18 18 18 18 17 17 16 16 16 15 15 16 16 16 17 18 18 18
16 15 15 15 14 12 12 13 13 12 12 12 13 14 14 15 15 15 16 16 15 16 16 17 18 18 18 18 17 17 16 16 16 15 15 15 15 15 16 16 16 17
17 16 15 15 14 13 13 14 12 12 12 13 13 14 15 16 16 15 15 15 15 16 17 18 18 18 18 17 17 16 16 16 15 15 15 15 14 14 14 15 15 16
19 17 16 16 15 14 14 13 12 12 13 13 14 15 16 16 15 15 14 15 16 17 17 18 18 18 17 17 17 16 16 16 16 16 16 16 15 15 15 15 15 15
19 18 17 16 15 14 14 13 12 12 13 13 14 15 16 15 14 14 14 15 16 17 17 17 17 17 17 17 16 16 16 16 17 17 17 17 18 18 17 17 17 17
19 18 17 17 15 14 14 13 12 13 13 13 14 15 15 14 14 14 15 16 17 17 17 17 16 16 16 16 16 16 16 16 17 17 18 18 19 19 19 19 19 19
18 18 18 17 16 15 14 13 12 12 13 13 14 14 14 13 14 14 15 16 17 17 16 16 16 16 16 16 16 15 15 15 15 16 17 17 18 19 19 20 20 20
18 18 18 17 16 15 14 13 12 12 13 14 14 13 13 13 14 15 16 16 16 16 16 16 16 15 15 14 13 13 12 13 13 14 14 15 16 18 19 20 20 20
20 20 19 18 16 15 14 13 12 13 13 13 13 13 13 13 15 15 16 16 16 16 16 15 14 13 11 10 10 10 11 12 13 14 14 15 17 18 19 19 20 21
21 21 20 18 17 16 14 13 13 13 13 13 13 12 13 14 15 15 16 16 16 16 15 13 10 9 8 9 10 11 12 13 13 14 15 16 17 18 19 20 20 21
22 22 20 19 18 16 15 14 13 12 12 12 12 12 13 14 15 15 15 15 15 14 11 8 7 7 9 10 11 11 12 12 13 14 15 16 17 18 18 19 19 20
22 22 21 20 18 17 15 14 13 12 12 12 12 12 13 14 14 14 14 14 12 9 6 6 7 8 9 10 10 11 11 12 13 14 15 16 16 17 17 18 19 19
23 22 21 20 18 16 15 14 12 11 11 12 11 12 13 13 13 13 13 11 8 5 5 7 8 8 9 9 10 11 11 11 13 14 14 15 16 17 18 18 19 19
23 22 21 20 18 16 14 12 11 11 11 11 12 12 12 12 11 11 9 6 3 5 6 7 7 8 8 9 9 10 11 11 13 14 14 15 16 17 18 18 19 19
22 22 21 19 17 15 13 11 10 10 11 12 12 11 10 10 9 7 4 3 5 6 6 6 7 7 8 8 10 11 11 12 13 14 14 15 16 17 18 18 18 18
22 21 20 18 16 14 12 9 8 9 10 12 12 10 9 8 5 2 3 5 5 5 5 6 7 7 8 8 10 11 11 11 12 13 14 15 16 17 17 17 17 17
22 21 19 18 15 13 10 8 6 8 11 13 11 9 6 4 0 4 6 5 5 5 5 6 6 7 8 8 9 10 10 11 12 13 14 15 15 16 15 15 16 16
21 20 19 17 15 12 10 7 6 10 13 13 10 6 3 2 5 7 6 5 4 5 5 6 6 6 7 8 8 9 9 10 12 13 13 14 15 15 15 15 15 15
21 19 18 16 14 11 9 5 7 12 14 11 7 4 4 7 8 8 6 5 5 5 5 5 5 6 6 7 7 8 9 10 11 12 12 13 14 14 14 14 14 14
Wind_Direction
238 251 267 280 292 302 306 304 303 311 319 322 322 322 321 320 319 319 322 326 330 335 338 341 343 344 344 344 344 342 338 334 332 332 332 332 334 334 334 334 334 334
245 256 270 281 292 301 302 301 305 313 318 320 319 319 318 317 317 318 322 325 329 334 337 341 342 343 344 343 342 342 337 333 331 331 331 331 332 331 331 332 331 331
250 260 271 281 290 297 298 298 304 311 315 316 315 315 315 315 316 319 322 324 328 332 336 340 342 342 343 342 342 340 337 334 332 331 330 330 331 330 330 329 329 329
252 262 272 280 288 293 294 294 301 308 311 311 311 312 313 314 316 319 320 323 326 332 335 339 341 341 342 342 341 340 338 337 334 332 331 331 330 329 328 327 327 327
253 263 271 278 285 289 289 292 299 304 305 305 307 310 312 313 316 317 319 323 327 331 335 337 339 340 341 342 341 341 341 339 335 332 331 332 330 327 326 326 325 326
255 264 269 276 283 285 285 289 296 298 298 301 305 309 311 313 315 317 320 324 328 331 334 336 338 340 341 342 342 342 341 338 336 333 332 331 329 326 325 325 326 326
257 264 270 276 280 280 281 287 292 292 294 300 306 309 312 314 315 318 320 323 327 330 333 336 338 340 341 341 342 341 339 338 337 335 333 331 328 326 325 325 325 326
259 265 271 276 276 275 278 284 286 288 294 301 306 308 311 313 315 318 320 323 327 330 333 336 339 340 340 341 342 340 339 338 338 337 334 332 329 327 326 324 325 327
261 267 272 274 271 269 275 280 282 287 295 300 304 307 309 312 314 318 321 325 328 331 333 337 339 339 340 341 341 339 340 340 341 339 337 336 333 331 329 328 329 330
262 268 271 270 265 265 270 276 280 287 293 297 301 306 309 312 315 319 323 326 329 332 335 337 338 339 340 340 340 340 342 343 342 341 339 338 336 335 333 332 333 333
261 265 267 264 259 261 267 273 278 283 289 295 301 306 309 312 316 320 324 326 329 333 335 337 338 339 340 339 340 341 342 343 341 340 339 337 337 338 338 337 336 336
258 260 260 257 254 258 265 269 274 281 288 295 302 306 309 312 316 321 324 326 331 334 335 336 338 339 339 338 340 342 342 341 339 338 338 337 338 340 342 342 342 342
253 254 253 250 249 254 261 265 271 279 286 294 301 305 308 312 317 321 325 328 332 334 335 337 338 337 337 339 341 341 340 338 337 337 339 341 342 346 350 352 353 353
250 250 248 245 245 251 257 261 268 276 284 292 299 303 307 313 317 322 327 330 332 334 335 336 336 337 339 340 341 339 337 339 343 345 348 352 355 359 2 5 6 6
250 248 244 241 243 249 253 257 264 273 282 290 296 302 308 314 318 323 328 331 332 333 334 335 336 338 340 340 341 344 350 358 6 10 10 11 13 13 13 13 11 11
249 245 240 238 241 246 249 253 260 269 279 288 294 302 308 313 319 325 328 330 332 333 334 336 338 342 346 353 4 15 22 25 26 27 24 22 20 18 15 13 11 10
244 240 237 236 239 243 244 248 256 265 276 286 293 301 308 313 319 325 327 330 332 333 336 341 349 3 19 32 38 39 36 33 29 26 24 22 20 18 15 13 11 9
238 235 234 234 237 239 240 245 252 262 274 284 292 299 306 313 319 324 329 331 332 336 344 2 28 46 52 50 46 42 35 29 26 25 24 22 19 17 15 13 11 10
233 231 231 233 235 235 237 242 249 260 272 281 289 297 306 314 320 326 330 331 335 346 14 54 65 63 57 51 45 41 34 27 28 28 25 23 20 18 16 15 13 11
229 228 229 232 232 231 234 239 247 260 272 279 288 297 307 317 323 328 331 334 349 32 73 78 69 60 54 49 45 42 35 31 32 31 27 25 23 21 19 17 15 13
225 226 228 230 229 228 231 236 246 260 271 280 289 299 310 320 326 330 335 350 52 90 88 75 66 59 54 50 49 46 38 34 35 33 29 27 25 23 21 19 17 16
223 226 228 228 227 226 227 233 246 261 273 283 291 302 313 322 327 333 353 85 107 99 84 75 67 60 56 52 50 46 38 35 37 35 31 30 28 25 22 20 18 18
222 225 226 226 225 223 224 231 246 265 278 286 292 302 314 321 328 358 121 124 115 98 84 78 70 61 56 51 47 44 37 35 37 36 33 31 29 25 22 21 19 19
222 223 224 223 221 219 221 225 244 272 283 285 289 300 310 312 210 142 140 132 117 101 88 78 69 60 53 47 43 40 35 33 36 35 32 30 28 25 21 20 20 20
220 221 221 219 215 215 213 216 251 276 278 278 283 292 286 192 156 151 147 135 119 105 89 77 66 56 49 44 39 36 33 32 33 32 28 26 25 22 18 18 19 19
218 218 217 213 210 209 205 217 265 271 268 269 273 263 203 166 158 157 149 136 123 105 88 76 62 52 45 39 33 30 29 29 29 27 24 22 21 17 14 14 16 17